Location: Hurstbourne Priors
(51.2000°N, 1.3667°W)
Time: 19:28:13
(UTC+00:00)

A-11 Canister half - All Passes

Search period start: 19 April 2021 00:00
Search period end: 29 April 2021 00:00
Orbit: 1515 x 1685 km, 47.2° (Epoch: 18 April)

Date Brightness Start Highest point End Pass type
(mag) Time Alt. Az. Time Alt. Az. Time Alt. Az.
19 Apr - 01:00:32 10° W 01:10:06 69° S 01:20:01 10° ESE visible
19 Apr - 03:05:14 10° W 03:14:18 45° SSW 03:23:37 10° SE visible
19 Apr - 05:11:38 10° W 05:17:20 17° SW 05:23:07 10° SSW daylight
19 Apr - 20:30:54 10° SSW 20:38:56 33° SE 20:47:11 10° E visible
19 Apr - 22:33:22 10° WSW 22:42:39 63° SSE 22:52:19 10° E visible
20 Apr - 00:37:38 10° W 00:47:11 70° S 00:57:05 10° ESE visible
20 Apr - 02:42:18 10° W 02:51:26 46° SSW 03:00:48 10° SE visible
20 Apr - 04:48:28 10° W 04:54:32 18° SW 05:00:42 10° SSW daylight
20 Apr - 20:08:14 10° SSW 20:16:07 32° SE 20:24:12 10° E visible
20 Apr - 22:10:32 10° WSW 22:19:46 62° SSE 22:29:22 10° E visible
21 Apr - 00:14:45 10° W 00:24:16 70° S 00:34:09 10° ESE visible
21 Apr - 02:19:23 10° W 02:28:33 48° SSW 02:37:59 10° SE visible
21 Apr - 04:25:21 10° W 04:31:43 20° SW 04:38:12 10° S visible
21 Apr - 19:45:35 10° SSW 19:53:18 30° SE 20:01:11 10° E visible
21 Apr - 21:47:42 10° WSW 21:56:53 60° SSE 22:06:24 10° E visible
21 Apr - 23:51:52 10° W 00:01:21 71° S 00:11:13 10° ESE visible
22 Apr - 01:56:29 10° W 02:05:39 49° SSW 02:15:08 10° SE visible
22 Apr - 04:02:15 10° W 04:08:55 21° SW 04:15:42 10° S visible
22 Apr - 19:22:58 10° SSW 19:30:29 29° SE 19:38:11 10° E daylight
22 Apr - 21:24:52 10° SW 21:34:00 59° SSE 21:43:28 10° E visible
22 Apr - 23:28:58 10° W 23:38:26 71° S 23:48:16 10° ESE visible
23 Apr - 01:33:35 10° W 01:42:47 51° SSW 01:52:17 10° SE visible
23 Apr - 03:39:11 10° W 03:46:06 22° SW 03:53:09 10° S visible
23 Apr - 19:00:21 10° S 19:07:41 27° SE 19:15:10 10° E daylight
23 Apr - 21:02:03 10° SW 21:11:07 57° SSE 21:20:31 10° E visible
23 Apr - 23:06:06 10° W 23:15:32 71° S 23:25:20 10° ESE visible
24 Apr - 01:10:40 10° W 01:19:54 52° SSW 01:29:26 10° SE visible
24 Apr - 03:16:09 10° W 03:23:17 23° SW 03:30:35 10° S visible
24 Apr - 18:37:46 10° S 18:44:53 25° SE 18:52:08 10° E daylight
24 Apr - 20:39:14 10° SW 20:48:15 56° SSE 20:57:35 10° E visible
24 Apr - 22:43:13 10° W 22:52:37 71° S 23:02:23 10° E visible
25 Apr - 00:47:46 10° W 00:57:01 54° SSW 01:06:34 10° SE visible
25 Apr - 02:53:07 10° W 03:00:28 25° SW 03:07:58 10° S visible
25 Apr - 18:15:12 10° S 18:22:06 24° SE 18:29:06 10° E daylight
25 Apr - 20:16:26 10° SW 20:25:23 54° SSE 20:34:38 10° E visible
25 Apr - 22:20:20 10° W 22:29:43 71° S 22:39:27 10° E visible
26 Apr - 00:24:53 10° W 00:34:07 55° SSW 00:43:41 10° SE visible
26 Apr - 02:30:07 10° W 02:37:38 26° SW 02:45:21 10° S visible
26 Apr - 17:52:39 10° S 17:59:18 23° SE 18:06:02 10° E daylight
26 Apr - 19:53:38 10° SW 20:02:31 52° SSE 20:11:41 10° E visible
26 Apr - 21:57:27 10° W 22:06:48 71° S 22:16:30 10° E visible
27 Apr - 00:01:59 10° W 00:11:14 57° SSW 00:20:49 10° SE visible
27 Apr - 02:07:07 10° W 02:14:48 28° SW 02:22:41 10° S visible
27 Apr - 17:30:08 10° S 17:36:30 21° SE 17:42:58 10° E daylight
27 Apr - 19:30:50 10° SW 19:39:39 50° SSE 19:48:44 10° E daylight
27 Apr - 21:34:34 10° WSW 21:43:54 71° S 21:53:34 10° E visible
27 Apr - 23:39:05 10° W 23:48:21 58° SSW 23:57:56 10° SE visible
28 Apr - 01:44:09 10° W 01:51:59 29° SW 02:00:01 10° SSE visible
28 Apr - 17:07:39 10° S 17:13:43 20° SE 17:19:52 10° E daylight
28 Apr - 19:08:02 10° SW 19:16:48 49° SSE 19:25:48 10° E daylight
28 Apr - 21:11:42 10° WSW 21:21:00 70° S 21:30:38 10° E visible
28 Apr - 23:16:12 10° W 23:25:27 60° SSW 23:35:03 10° ESE visible
